Wheeling, WV

3:16 AM EST on December 10, 2019 (GMT -0500)
Wheeling-Ohio County

Weather History for KHLG - October, 2019

Change the Weather History Date:

Monday, October 21, 2019

  Actual Average Record
Temperature  
Mean Temperature 61 °F 52 °F  
Max Temperature 76 °F 61 °F 81 °F (1947)
Min Temperature 46 °F 42 °F 19 °F (1952)
Degree Days  
Heating Degree Days 4 14  
Month to date heating degree days 165 221  
Since 1 July heating degree days 166 322  
Cooling Degree Days 0 0  
Month to date cooling degree days 40 10  
Year to date cooling degree days 986 688  
Growing Degree Days 12 (Base 50)    
Moisture  
Dew Point 50 °F    
Average Humidity 69    
Maximum Humidity 100    
Minimum Humidity 38    
Precipitation  
Precipitation 0.00 in 0.08 in 1.52 in (2016)
Month to date precipitation 2.45 1.76  
Year to date precipitation 30.43 31.53  
Sea Level Pressure  
Sea Level Pressure 29.96 in    
Wind  
Wind Speed 8 mph (SE)    
Max Wind Speed 17 mph    
Max Gust Speed 21 mph    
Visibility 7 miles    
Events Fog    
T = Trace of Precipitation, MM = Missing Value Source: NWS Daily Summary

Daily Weather History Graph

Daily Weather History Graph

Search for Another Location

Airport or City:

Astronomy

Oct. 21, 2019 Rise Set
Actual Time 7:39 AM EDT 6:34 PM EDT
Civil Twilight 7:11 AM EDT 7:01 PM EDT
Nautical Twilight 6:40 AM EDT 7:33 PM EDT
Astronomical Twilight 6:08 AM EDT 8:05 PM EDT
Moon No Moon Rise 2:56 PM EDT (10/21)
Length of Visible Light 11h 50m
Length of Day
10h 55m
Waning Gibbous, 48% of the Moon is Illuminated
Oct 21
Waning Gibbous
Oct 27
New
Nov 4
First Quarter
Nov 12
Full
Nov 19
Last Quarter

Hourly Weather History & Observations

Time (EDT) Temp. Dew Point Humidity Pressure Visibility Wind Dir Wind Speed Gust Speed Precip Events Conditions
12:53 AM 52.0 °F 48.9 °F 89% 30.01 in 10.0 mi Calm Calm - N/A   Clear
1:53 AM 53.1 °F 48.9 °F 86% 30.01 in 10.0 mi ESE 3.5 mph - N/A   Clear
2:53 AM 51.1 °F 48.0 °F 89% 30.01 in 10.0 mi SSE 4.6 mph - N/A   Clear
3:53 AM 50.0 °F 46.9 °F 89% 30.00 in 10.0 mi Calm Calm - N/A   Clear
4:53 AM 48.0 °F 46.0 °F 93% 30.01 in 6.0 mi Calm Calm - N/A   Clear
5:53 AM 48.0 °F 46.0 °F 93% 30.00 in 10.0 mi ESE 6.9 mph - N/A   Clear
6:53 AM 51.1 °F 50.0 °F 96% 30.01 in 10.0 mi SE 4.6 mph - N/A   Clear
7:25 AM 51.1 °F 48.9 °F 92% 30.01 in 1.8 mi ESE 3.5 mph - N/A   Clear
7:36 AM 50.0 °F 48.9 °F 96% 30.01 in 0.5 mi Calm Calm - N/A Fog Fog
7:49 AM 48.2 °F 46.4 °F 93% 30.01 in 0.2 mi East 3.5 mph - N/A Fog Fog
7:53 AM 48.9 °F 46.9 °F 93% 30.01 in 0.2 mi East 3.5 mph - N/A Fog Fog
8:33 AM 48.0 °F 48.0 °F 100% 30.02 in 0.2 mi ESE 5.8 mph - N/A Fog Fog
8:48 AM 48.2 °F 46.4 °F 93% 30.02 in 0.2 mi SE 8.1 mph - N/A Fog Fog
8:53 AM 48.9 °F 48.0 °F 97% 30.03 in 0.2 mi SE 9.2 mph - N/A Fog Fog
9:53 AM 52.0 °F 51.1 °F 97% 30.02 in 0.2 mi SE 6.9 mph - N/A Fog Fog
10:16 AM 53.1 °F 53.1 °F 100% 30.01 in 0.2 mi SE 6.9 mph - N/A Fog Fog
10:24 AM 54.0 °F 53.1 °F 97% 30.00 in 1.0 mi East 6.9 mph - N/A   Mist
10:32 AM 54.0 °F 54.0 °F 100% 30.00 in 3.0 mi ESE 8.1 mph - N/A   Overcast
10:53 AM 55.0 °F 54.0 °F 96% 30.01 in 9.0 mi East 9.2 mph - N/A   Overcast
11:11 AM 55.9 °F 54.0 °F 93% 29.99 in 10.0 mi SE 8.1 mph - N/A   Scattered Clouds
11:53 AM 63.0 °F 52.0 °F 67% 29.98 in 10.0 mi East 12.7 mph - N/A   Clear
12:53 PM 68.0 °F 51.1 °F 55% 29.96 in 10.0 mi SE 10.4 mph - N/A   Clear
1:53 PM 70.0 °F 50.0 °F 49% 29.91 in 10.0 mi SE 12.7 mph - N/A   Clear
2:53 PM 72.0 °F 48.0 °F 43% 29.89 in 10.0 mi SE 12.7 mph 20.7 mph N/A   Clear
3:53 PM 75.0 °F 48.9 °F 40% 29.86 in 10.0 mi ESE 13.8 mph - N/A   Clear
4:53 PM 75.0 °F 48.0 °F 38% 29.85 in 10.0 mi SSE 10.4 mph - N/A   Clear
5:53 PM 71.1 °F 48.9 °F 45% 29.85 in 10.0 mi ESE 6.9 mph - N/A   Overcast
6:53 PM 68.0 °F 48.9 °F 50% 29.85 in 10.0 mi ESE 8.1 mph - N/A   Mostly Cloudy
7:53 PM 66.9 °F 48.9 °F 52% 29.85 in 10.0 mi ESE 9.2 mph - N/A   Partly Cloudy
8:53 PM 66.9 °F 48.9 °F 52% 29.85 in 10.0 mi SE 9.2 mph - N/A   Mostly Cloudy
9:53 PM 68.0 °F 52.0 °F 56% 29.82 in 10.0 mi SSE 12.7 mph - N/A   Clear
10:53 PM 68.0 °F 52.0 °F 56% 29.83 in 10.0 mi SSE 11.5 mph - N/A   Mostly Cloudy
11:53 PM 66.9 °F 53.1 °F 61% 29.83 in 10.0 mi South 10.4 mph - N/A   Mostly Cloudy